Weather Roundup
Issued by NWS Corpus Christi, TX

Current Version | Previous Version | Text Only | Print | Product List | Glossary On
Versions: 1 2 3 4 5 6 7 8 9 10 11 12 13 14 15 16 17 18 19 20 21 22 23 24 25 26 27 28 29 30 31 32 33 34 35 36 37 38 39 40 41 42 43 44 45 46 47 48 49 50
000
ASUS44 KCRP 101510
HRRCRP

SOUTH TEXAS REGIONAL WEATHER ROUNDUP
NATIONAL WEATHER SERVICE CORPUS CHRISTI TX
900 AM CST WED FEB 10 2016


TXZ229>244-101600-
...CORPUS CHRISTI AREA OBSERVATIONS...

CITY           SKY/WX    TMP DP  RH WIND       PRES   REMARKS
CORPUS CHRISTI MOSUNNY   57  36  45 NW7       30.38R
NAS CORPUS CHR MOSUNNY   58  44  60 W3        30.39R
ROCKPORT       SUNNY     58  37  45 CALM      30.39R
KINGSVILLE NAS SUNNY     54  41  61 SW5       30.38R
ALICE            N/A     55  35  47 N5        30.38R
FALFURRIAS     SUNNY     51  36  56 CALM      30.37R
$$

...VICTORIA AREA OBSERVATIONS...

CITY           SKY/WX    TMP DP  RH WIND       PRES   REMARKS
VICTORIA       SUNNY     53  38  56 E9        30.40R
BEEVILLE       FAIR      54  38  54 NE3       30.38R
PLEASANTON     SUNNY     49  33  53 NE7       30.39R
SAN ANTONIO    MOSUNNY   53  30  41 NE8       30.39R
$$

...LAREDO AREA OBSERVATIONS...

CITY           SKY/WX    TMP DP  RH WIND       PRES   REMARKS
LAREDO         SUNNY     52  35  52 CALM      30.38R
COTULLA        SUNNY     54  30  40 CALM      30.38R
DEL RIO        SUNNY     49  33  54 CALM      30.36R
MCALLEN        MOSUNNY   58  38  47 CALM      30.39R
HEBBRONVILLE   NOT AVBL
$$

...OTHER TEXAS OBSERVATIONS...

CITY           SKY/WX    TMP DP  RH WIND       PRES   REMARKS
BROWNSVILLE    SUNNY     60  43  53 SW8       30.39R
HOUSTON        MOSUNNY   51  32  48 SE6       30.41R
COL. STATION   SUNNY     50  30  46 SE5       30.40R
AUSTIN         SUNNY     51  34  52 CALM      30.39R
WACO           SUNNY     43  31  62 SW6       30.37S
FORT WORTH     MOSUNNY   43  30  60 S5        30.33R
WICHITA FALLS  SUNNY     38  29  70 VRB3      30.28F
LUBBOCK        MOSUNNY   36  21  54 W12       30.30S WCI  28
EL PASO        PTSUNNY   41  20  43 N8        30.39R
$$

...MARINE OBSERVATIONS...

STATION/POSITION TIME  SKY/WX   TEMP    WIND        PRES    VSBY  WAVE   SWELL
                                AIR SEA DIR/SP/G                  HT/PER HT/PER
                 (UTC)          (F)     (DEG/KT/KT) (MB)    (MI)  (FT/S) (FT/S)
PORT ARANSAS     1500            57 58   50/  4/  4 1029.7R
BUOY 90 E PORT A 1450            62 68   40/ 12/ 14 1029.3R         2/ 3
BUOY 45 SE BAFFI 1450            62 66  240/ 12/ 12 1028.5R         2/ 3
BUOY 200 E PT IS 1450                                 N/A           3/ 5   2/ 6
BUOY 15 E GALVES 1450            54 56   20/  8/ 10 1030.1R         1/ 3
$$



USA.gov is the U.S. government's official web portal to all federal, state and local government web resources and services.